Location: Shepherdstown, WV
(39.4326°N, 77.8042°W)
Time: 16:39:29
(UTC-04:00)

Tiros 1 despin weight - Pass Details

Date: 03 August 2021
Orbit: 593 x 641 km, 48.2° (Epoch: 18 September)

Event Time Altitude Azimuth Distance (km) Brightness Sun altitude
Rises 20:42:41 0° 290° (WNW) 2,936 ? -4.6°
Reaches altitude 10° 20:45:32 10° 273° (W) 2,018 ? -5.1°
Maximum altitude 20:48:52 20° 227° (SW) 1,476 ? -5.7°
Drops below altitude 10° 20:52:09 10° 181° (S) 1,993 ? -6.2°
Sets 20:54:58 0° 164° (SSE) 2,886 ? -6.7°
